Flag for Tunisia Weather past 2 weeks in Sfax, Tunisia

Now
64 °F

Clear.


Feels Like: 64 °F
Forecast: 55 / 71 °F
Wind: 8 mph from North

Location: Sfax El-Maou

Current Time: Apr 1, 2015 at 10:32:19 PM

Latest Report: Apr 1, 2015 at 10:00 PM


Visibility: 10 mi

Pressure: 30.15 "Hg

Humidity: 49%

Dew point: 45 °F

Location of SfaxLocation

Historic Weather in Sfax — Graph

°F

Sfax temperature yesterday

Maximum temperature yesterday: 82 °F (at 3:00 PM)
Minimum temperature yesterday: 59 °F (at 6:00 AM)
Average temperature yesterday: 71 °F

Past Weeks' High & Low Weather Summary

 TemperatureHumidityPressure
High82 °F (Mar 31, 3:00 PM)100% (Mar 25, 12:00 AM)30.18 "Hg (Mar 25, 12:00 AM)
Low48 °F (Mar 18, 4:00 AM)16% (Mar 22, 4:00 PM)29.45 "Hg (Mar 24, 6:00 PM)
Average62 °F65%29.92 "Hg
* Reported Mar 17 9:00 PM — Apr 1 9:00 PM, Sfax, Weather by CustomWeather, © 2015

Note: Actual official high and low records may vary slightly from our data, if they occured in-between our weather recording intervals... More about our weather records

Advertising

Sfax weather history for previous 24 hours

 ConditionsComfort  
Time TempWeatherWind HumidityBarometerVisibility
9:00 PM
Wed, Apr 1
66 °FClear.13 mph46%30.12 "Hg10 mi
8:00 PM70 °FClear.13 mph43%30.09 "Hg10 mi
7:00 PM72 °FClear.9 mph41%30.07 "Hg10 mi
6:00 PM75 °FSunny.12 mph34%30.07 "Hg10 mi
5:00 PM77 °FSunny.15 mph32%30.07 "Hg10 mi
4:00 PM79 °FPassing clouds.14 mph28%30.07 "HgN/A
3:00 PM79 °FSunny.14 mph28%30.07 "Hg10 mi
2:00 PM77 °FPassing clouds.16 mph30%30.09 "HgN/A
1:00 PM77 °FPassing clouds.16 mph30%30.12 "HgN/A
12:00 PM75 °FPassing clouds.17 mph31%30.15 "HgN/A
11:00 AM75 °FSunny.18 mph31%30.15 "Hg10 mi
10:00 AM72 °FPassing clouds.14 mph44%30.15 "HgN/A
9:00 AM68 °FPassing clouds.14 mph46%30.15 "HgN/A
8:00 AM66 °FPassing clouds.7 mph56%30.15 "HgN/A
7:00 AM61 °FSunny.6 mph68%30.12 "Hg10 mi
5:00 AM57 °FPassing clouds.6 mph67%30.09 "HgN/A
4:00 AM61 °FClear.7 mph59%30.07 "Hg10 mi
3:00 AM59 °FPassing clouds.3 mph63%30.09 "HgN/A
11:00 PM
Tue, Mar 31
70 °FClear.14 mph46%30.15 "Hg10 mi
10:00 PM70 °FClear.9 mph46%30.12 "Hg10 mi
Weather by CustomWeather, © 2015

See weather overviewHow to use our weather pages